Time,TemperatureF,DewpointF,PressureIn,WindDirection,WindDirectionDegrees,WindSpeedMPH,WindSpeedGustMPH,Humidity,HourlyPrecipIn,Conditions,Clouds,dailyrainin,SoftwareType,DateUTC
2013-11-18 00:01:00,53.6,43.3,30.05,ESE,110,0.0,0.0,68,0.00,,,0.00,Wunderground v.1.15,2013-11-18 07:01:00,
2013-11-18 00:07:00,53.8,43.5,30.05,ESE,110,0.0,0.0,68,0.00,,,0.00,Wunderground v.1.15,2013-11-18 07:07:00,
2013-11-18 00:12:00,53.8,43.5,30.05,ESE,110,0.0,0.0,68,0.00,,,0.00,Wunderground v.1.15,2013-11-18 07:12:00,
2013-11-18 00:17:00,54.1,43.4,30.05,ESE,113,0.0,1.0,67,0.00,,,0.00,Wunderground v.1.15,2013-11-18 07:17:00,
2013-11-18 00:22:00,54.2,43.5,30.05,ESE,113,0.0,0.0,67,0.00,,,0.00,Wunderground v.1.15,2013-11-18 07:22:00,
2013-11-18 00:27:00,54.2,43.5,30.05,ESE,108,0.0,1.0,67,0.00,,,0.00,Wunderground v.1.15,2013-11-18 07:27:00,
2013-11-18 00:32:00,54.2,43.5,30.05,ESE,104,1.0,1.0,67,0.00,,,0.00,Wunderground v.1.15,2013-11-18 07:32:00,
2013-11-18 00:37:00,54.4,43.3,30.05,ESE,107,0.0,1.0,66,0.00,,,0.00,Wunderground v.1.15,2013-11-18 07:37:00,
2013-11-18 00:42:00,54.3,43.2,30.05,ESE,108,0.0,0.0,66,0.00,,,0.00,Wunderground v.1.15,2013-11-18 07:42:00,
2013-11-18 00:47:00,54.2,43.1,30.05,ESE,109,0.0,1.0,66,0.00,,,0.00,Wunderground v.1.15,2013-11-18 07:47:00,
2013-11-18 00:52:00,53.6,42.5,30.05,ESE,109,0.0,0.0,66,0.00,,,0.00,Wunderground v.1.15,2013-11-18 07:52:00,
2013-11-18 00:57:00,53.2,42.9,30.05,ESE,108,0.0,0.0,68,0.00,,,0.00,Wunderground v.1.15,2013-11-18 07:57:00,
2013-11-18 01:02:00,53.1,42.4,30.05,ESE,108,0.0,0.0,67,0.00,,,0.00,Wunderground v.1.15,2013-11-18 08:02:00,
2013-11-18 01:07:00,52.9,43.0,30.05,ESE,108,1.0,1.0,69,0.00,,,0.00,Wunderground v.1.15,2013-11-18 08:07:00,
2013-11-18 01:12:00,53.1,43.2,30.05,East,97,1.0,1.0,69,0.00,,,0.00,Wunderground v.1.15,2013-11-18 08:12:00,
2013-11-18 01:17:00,53.4,43.1,30.04,ESE,108,1.0,1.0,68,0.00,,,0.00,Wunderground v.1.15,2013-11-18 08:17:00,
2013-11-18 01:22:00,53.5,42.8,30.05,East,99,0.0,1.0,67,0.00,,,0.00,Wunderground v.1.15,2013-11-18 08:22:00,
2013-11-18 01:27:00,53.1,41.2,30.04,East,93,0.0,1.0,64,0.00,,,0.00,Wunderground v.1.15,2013-11-18 08:27:00,
2013-11-18 01:32:00,51.9,40.1,30.04,NE,52,0.0,0.0,64,0.00,,,0.00,Wunderground v.1.15,2013-11-18 08:32:00,
2013-11-18 01:37:00,51.2,41.4,30.04,NE,49,0.0,1.0,69,0.00,,,0.00,Wunderground v.1.15,2013-11-18 08:37:00,
2013-11-18 01:43:00,51.0,41.9,30.04,NE,49,0.0,0.0,71,0.00,,,0.00,Wunderground v.1.15,2013-11-18 08:43:00,
2013-11-18 01:48:00,51.2,42.1,30.04,NE,49,0.0,0.0,71,0.00,,,0.00,Wunderground v.1.15,2013-11-18 08:48:00,
2013-11-18 01:53:00,51.2,42.1,30.04,NE,50,0.0,0.0,71,0.00,,,0.00,Wunderground v.1.15,2013-11-18 08:53:00,
2013-11-18 01:58:00,51.7,43.0,30.04,ESE,110,0.0,0.0,72,0.00,,,0.00,Wunderground v.1.15,2013-11-18 08:58:00,
2013-11-18 02:03:00,52.0,42.5,30.04,ESE,108,0.0,0.0,70,0.00,,,0.00,Wunderground v.1.15,2013-11-18 09:03:00,
2013-11-18 02:08:00,52.1,42.6,30.04,ESE,108,0.0,0.0,70,0.00,,,0.00,Wunderground v.1.15,2013-11-18 09:08:00,
2013-11-18 02:13:00,52.2,42.7,30.04,ESE,108,0.0,0.0,70,0.00,,,0.00,Wunderground v.1.15,2013-11-18 09:13:00,
2013-11-18 02:18:00,52.4,42.9,30.04,ESE,108,0.0,0.0,70,0.00,,,0.00,Wunderground v.1.15,2013-11-18 09:18:00,
2013-11-18 02:24:00,52.2,43.1,30.04,ESE,110,0.0,0.0,71,0.00,,,0.00,Wunderground v.1.15,2013-11-18 09:24:00,
2013-11-18 02:29:00,52.0,42.9,30.04,ESE,109,0.0,0.0,71,0.00,,,0.00,Wunderground v.1.15,2013-11-18 09:29:00,
2013-11-18 02:34:00,52.2,43.1,30.04,ESE,110,0.0,0.0,71,0.00,,,0.00,Wunderground v.1.15,2013-11-18 09:34:00,
2013-11-18 02:40:00,52.3,43.2,30.03,ESE,108,0.0,0.0,71,0.00,,,0.00,Wunderground v.1.15,2013-11-18 09:40:00,
2013-11-18 02:45:00,52.3,42.8,30.03,ESE,110,0.0,1.0,70,0.00,,,0.00,Wunderground v.1.15,2013-11-18 09:45:00,
2013-11-18 02:50:00,52.2,42.7,30.03,ESE,108,0.0,0.0,70,0.00,,,0.00,Wunderground v.1.15,2013-11-18 09:50:00,
2013-11-18 02:56:00,51.4,41.2,30.03,NNW,347,3.0,3.0,68,0.00,,,0.00,Wunderground v.1.15,2013-11-18 09:56:00,
2013-11-18 03:01:00,50.0,41.0,30.03,East,88,0.0,1.0,71,0.00,,,0.00,Wunderground v.1.15,2013-11-18 10:01:00,
2013-11-18 03:06:00,49.5,41.2,30.03,East,87,0.0,1.0,73,0.00,,,0.00,Wunderground v.1.15,2013-11-18 10:06:00,
2013-11-18 03:11:00,49.4,41.5,30.03,East,87,0.0,0.0,74,0.00,,,0.00,Wunderground v.1.15,2013-11-18 10:11:00,
2013-11-18 03:16:00,49.3,41.4,30.03,East,88,0.0,0.0,74,0.00,,,0.00,Wunderground v.1.15,2013-11-18 10:16:00,
2013-11-18 03:21:00,49.0,41.1,30.03,East,87,0.0,0.0,74,0.00,,,0.00,Wunderground v.1.15,2013-11-18 10:21:00,
2013-11-18 03:26:00,48.9,41.3,30.03,East,87,0.0,0.0,75,0.00,,,0.00,Wunderground v.1.15,2013-11-18 10:26:00,
2013-11-18 03:31:00,48.9,41.7,30.03,East,87,0.0,0.0,76,0.00,,,0.00,Wunderground v.1.15,2013-11-18 10:31:00,
2013-11-18 03:36:00,49.2,42.3,30.03,East,87,0.0,0.0,77,0.00,,,0.00,Wunderground v.1.15,2013-11-18 10:36:00,
2013-11-18 03:41:00,49.7,42.1,30.03,East,87,0.0,0.0,75,0.00,,,0.00,Wunderground v.1.15,2013-11-18 10:41:00,
2013-11-18 03:46:00,50.1,42.1,30.03,East,87,0.0,1.0,74,0.00,,,0.00,Wunderground v.1.15,2013-11-18 10:46:00,
2013-11-18 03:51:00,50.3,41.3,30.04,NW,323,0.0,0.0,71,0.00,,,0.00,Wunderground v.1.15,2013-11-18 10:51:00,
2013-11-18 03:56:00,50.2,41.2,30.04,NW,323,0.0,0.0,71,0.00,,,0.00,Wunderground v.1.15,2013-11-18 10:56:00,
2013-11-18 04:01:00,50.2,41.2,30.04,North,4,0.0,1.0,71,0.00,,,0.00,Wunderground v.1.15,2013-11-18 11:01:00,
2013-11-18 04:06:00,50.4,41.3,30.04,NNE,13,0.0,1.0,71,0.00,,,0.00,Wunderground v.1.15,2013-11-18 11:06:00,
2013-11-18 04:11:00,50.6,41.5,30.04,East,79,0.0,1.0,71,0.00,,,0.00,Wunderground v.1.15,2013-11-18 11:11:00,
2013-11-18 04:16:00,50.7,41.6,30.04,WSW,257,0.0,1.0,71,0.00,,,0.00,Wunderground v.1.15,2013-11-18 11:16:00,
2013-11-18 04:21:00,50.1,40.7,30.04,NW,309,1.0,2.0,70,0.00,,,0.00,Wunderground v.1.15,2013-11-18 11:21:00,
2013-11-18 04:26:00,50.1,41.1,30.04,North,6,0.0,3.0,71,0.00,,,0.00,Wunderground v.1.15,2013-11-18 11:26:00,
2013-11-18 04:31:00,49.9,40.9,30.04,SSW,198,0.0,1.0,71,0.00,,,0.00,Wunderground v.1.15,2013-11-18 11:31:00,
2013-11-18 04:36:00,49.5,41.2,30.04,SSW,198,0.0,1.0,73,0.00,,,0.00,Wunderground v.1.15,2013-11-18 11:36:00,
2013-11-18 04:41:00,49.6,41.7,30.04,SSW,198,0.0,0.0,74,0.00,,,0.00,Wunderground v.1.15,2013-11-18 11:41:00,
2013-11-18 04:46:00,49.5,41.6,30.05,WSW,238,0.0,1.0,74,0.00,,,0.00,Wunderground v.1.15,2013-11-18 11:46:00,
2013-11-18 04:51:00,49.3,42.1,30.05,WSW,238,0.0,1.0,76,0.00,,,0.00,Wunderground v.1.15,2013-11-18 11:51:00,
2013-11-18 04:56:00,49.2,42.0,30.04,WSW,237,0.0,1.0,76,0.00,,,0.00,Wunderground v.1.15,2013-11-18 11:56:00,
2013-11-18 05:01:00,49.1,42.2,30.05,WSW,238,0.0,0.0,77,0.00,,,0.00,Wunderground v.1.15,2013-11-18 12:01:00,
2013-11-18 05:06:00,48.9,42.3,30.05,WSW,238,0.0,1.0,78,0.00,,,0.00,Wunderground v.1.15,2013-11-18 12:06:00,
2013-11-18 05:11:00,48.8,42.2,30.05,WSW,238,0.0,0.0,78,0.00,,,0.00,Wunderground v.1.15,2013-11-18 12:11:00,
2013-11-18 05:16:00,48.7,42.1,30.05,SE,131,0.0,0.0,78,0.00,,,0.00,Wunderground v.1.15,2013-11-18 12:16:00,
2013-11-18 05:21:00,48.6,41.7,30.05,SE,130,0.0,0.0,77,0.00,,,0.00,Wunderground v.1.15,2013-11-18 12:21:00,
2013-11-18 05:26:00,48.4,41.5,30.05,ESE,120,0.0,1.0,77,0.00,,,0.00,Wunderground v.1.15,2013-11-18 12:26:00,
2013-11-18 05:32:00,48.4,41.9,30.06,ESE,120,0.0,0.0,78,0.00,,,0.00,Wunderground v.1.15,2013-11-18 12:32:00,
2013-11-18 05:37:00,48.5,42.3,30.06,ESE,120,0.0,0.0,79,0.00,,,0.00,Wunderground v.1.15,2013-11-18 12:37:00,
2013-11-18 05:42:00,48.5,42.0,30.06,ESE,120,0.0,0.0,78,0.00,,,0.00,Wunderground v.1.15,2013-11-18 12:42:00,
2013-11-18 05:47:00,48.4,41.5,30.06,ESE,120,0.0,0.0,77,0.00,,,0.00,Wunderground v.1.15,2013-11-18 12:47:00,
2013-11-18 05:52:00,48.4,41.5,30.06,ESE,121,0.0,0.0,77,0.00,,,0.00,Wunderground v.1.15,2013-11-18 12:52:00,
2013-11-18 05:57:00,48.2,41.3,30.06,ESE,122,0.0,0.0,77,0.00,,,0.00,Wunderground v.1.15,2013-11-18 12:57:00,
2013-11-18 06:02:00,48.0,41.1,30.06,East,86,0.0,0.0,77,0.00,,,0.00,Wunderground v.1.15,2013-11-18 13:02:00,
2013-11-18 06:07:00,48.2,41.0,30.06,East,84,0.0,1.0,76,0.00,,,0.00,Wunderground v.1.15,2013-11-18 13:07:00,
2013-11-18 06:12:00,48.5,40.9,30.06,East,84,0.0,1.0,75,0.00,,,0.00,Wunderground v.1.15,2013-11-18 13:12:00,
2013-11-18 06:17:00,48.6,41.0,30.07,East,85,0.0,1.0,75,0.00,,,0.00,Wunderground v.1.15,2013-11-18 13:17:00,
2013-11-18 06:22:00,48.7,40.8,30.06,East,82,0.0,1.0,74,0.00,,,0.00,Wunderground v.1.15,2013-11-18 13:22:00,
2013-11-18 06:27:00,48.8,40.9,30.07,East,85,0.0,1.0,74,0.00,,,0.00,Wunderground v.1.15,2013-11-18 13:27:00,
2013-11-18 06:32:00,48.6,41.0,30.07,East,98,0.0,0.0,75,0.00,,,0.00,Wunderground v.1.15,2013-11-18 13:32:00,
2013-11-18 06:37:00,48.3,40.0,30.07,North,6,0.0,0.0,73,0.00,,,0.00,Wunderground v.1.15,2013-11-18 13:37:00,
2013-11-18 06:42:00,47.6,40.1,30.07,North,6,0.0,0.0,75,0.00,,,0.00,Wunderground v.1.15,2013-11-18 13:42:00,
2013-11-18 06:47:00,47.6,40.4,30.07,North,6,0.0,0.0,76,0.00,,,0.00,Wunderground v.1.15,2013-11-18 13:47:00,
2013-11-18 06:52:00,47.4,40.2,30.07,ENE,58,0.0,0.0,76,0.00,,,0.00,Wunderground v.1.15,2013-11-18 13:52:00,
2013-11-18 06:57:00,47.5,40.3,30.07,ESE,111,0.0,2.0,76,0.00,,,0.00,Wunderground v.1.15,2013-11-18 13:57:00,
2013-11-18 07:02:00,47.6,40.4,30.07,ESE,113,0.0,0.0,76,0.00,,,0.00,Wunderground v.1.15,2013-11-18 14:02:00,
2013-11-18 07:07:00,47.7,40.5,30.07,ESE,112,0.0,1.0,76,0.00,,,0.00,Wunderground v.1.15,2013-11-18 14:07:00,
2013-11-18 07:12:00,47.5,40.3,30.08,ESE,111,0.0,0.0,76,0.00,,,0.00,Wunderground v.1.15,2013-11-18 14:12:00,
2013-11-18 07:17:00,47.3,40.5,30.08,ESE,112,0.0,0.0,77,0.00,,,0.00,Wunderground v.1.15,2013-11-18 14:17:00,
2013-11-18 07:22:00,47.3,40.5,30.08,ESE,111,0.0,0.0,77,0.00,,,0.00,Wunderground v.1.15,2013-11-18 14:22:00,
2013-11-18 07:27:00,47.1,40.3,30.08,ESE,112,0.0,0.0,77,0.00,,,0.00,Wunderground v.1.15,2013-11-18 14:27:00,
2013-11-18 07:32:00,46.8,40.0,30.08,ESE,111,0.0,0.0,77,0.00,,,0.00,Wunderground v.1.15,2013-11-18 14:32:00,
2013-11-18 07:37:00,46.6,40.1,30.08,ESE,111,0.0,0.0,78,0.00,,,0.00,Wunderground v.1.15,2013-11-18 14:37:00,
2013-11-18 07:42:00,46.9,40.7,30.09,ESE,111,0.0,0.0,79,0.00,,,0.00,Wunderground v.1.15,2013-11-18 14:42:00,
2013-11-18 07:47:00,47.5,41.0,30.09,ESE,111,0.0,0.0,78,0.00,,,0.00,Wunderground v.1.15,2013-11-18 14:47:00,
2013-11-18 07:52:00,48.7,41.5,30.09,East,93,0.0,1.0,76,0.00,,,0.00,Wunderground v.1.15,2013-11-18 14:52:00,
2013-11-18 07:57:00,49.5,41.6,30.09,NNE,22,0.0,1.0,74,0.00,,,0.00,Wunderground v.1.15,2013-11-18 14:57:00,
2013-11-18 08:03:00,50.4,42.1,30.09,East,85,0.0,1.0,73,0.00,,,0.00,Wunderground v.1.15,2013-11-18 15:03:00,
2013-11-18 08:08:00,51.2,42.1,30.09,ENE,72,0.0,1.0,71,0.00,,,0.00,Wunderground v.1.15,2013-11-18 15:08:00,
2013-11-18 08:13:00,51.9,42.4,30.09,East,91,0.0,0.0,70,0.00,,,0.00,Wunderground v.1.15,2013-11-18 15:13:00,
2013-11-18 08:18:00,52.7,42.8,30.10,North,360,0.0,0.0,69,0.00,,,0.00,Wunderground v.1.15,2013-11-18 15:18:00,
2013-11-18 08:23:00,53.2,42.9,30.10,North,4,0.0,1.0,68,0.00,,,0.00,Wunderground v.1.15,2013-11-18 15:23:00,
2013-11-18 08:28:00,53.4,42.7,30.10,North,359,0.0,1.0,67,0.00,,,0.00,Wunderground v.1.15,2013-11-18 15:28:00,
2013-11-18 08:33:00,53.4,41.9,30.10,North,358,0.0,0.0,65,0.00,,,0.00,Wunderground v.1.15,2013-11-18 15:33:00,
2013-11-18 08:38:00,53.0,42.3,30.10,North,359,0.0,0.0,67,0.00,,,0.00,Wunderground v.1.15,2013-11-18 15:38:00,
2013-11-18 08:43:00,52.9,42.2,30.10,North,358,1.0,2.0,67,0.00,,,0.00,Wunderground v.1.15,2013-11-18 15:43:00,
2013-11-18 08:48:00,53.1,42.4,30.10,North,352,0.0,2.0,67,0.00,,,0.00,Wunderground v.1.15,2013-11-18 15:48:00,
2013-11-18 08:51:00,53.3,42.6,30.10,ENE,77,0.0,1.0,67,0.00,,,0.00,Wunderground v.1.15,2013-11-18 15:51:00,
2013-11-18 08:56:00,54.1,43.0,30.11,North,5,0.0,1.0,66,0.00,,,0.00,Wunderground v.1.15,2013-11-18 15:56:00,
2013-11-18 09:01:00,54.2,42.7,30.11,North,349,2.0,3.0,65,0.00,,,0.00,Wunderground v.1.15,2013-11-18 16:01:00,
2013-11-18 09:06:00,54.3,43.2,30.11,NW,315,0.0,3.0,66,0.00,,,0.00,Wunderground v.1.15,2013-11-18 16:06:00,
2013-11-18 09:11:00,54.9,43.4,30.11,North,350,0.0,1.0,65,0.00,,,0.00,Wunderground v.1.15,2013-11-18 16:11:00,
2013-11-18 09:16:00,56.0,44.0,30.11,NNE,27,0.0,1.0,64,0.00,,,0.00,Wunderground v.1.15,2013-11-18 16:16:00,
2013-11-18 09:21:00,56.6,44.1,30.11,NNW,332,0.0,1.0,63,0.00,,,0.00,Wunderground v.1.15,2013-11-18 16:21:00,
2013-11-18 09:26:00,57.8,44.4,30.11,ENE,76,0.0,1.0,61,0.00,,,0.00,Wunderground v.1.15,2013-11-18 16:26:00,
2013-11-18 09:31:00,58.7,44.4,30.11,East,80,0.0,0.0,59,0.00,,,0.00,Wunderground v.1.15,2013-11-18 16:31:00,
2013-11-18 09:36:00,59.4,44.2,30.11,North,353,0.0,1.0,57,0.00,,,0.00,Wunderground v.1.15,2013-11-18 16:36:00,
2013-11-18 09:41:00,60.0,44.3,30.11,NNE,18,0.0,1.0,56,0.00,,,0.00,Wunderground v.1.15,2013-11-18 16:41:00,
2013-11-18 09:46:00,60.8,44.5,30.11,NE,39,0.0,4.0,55,0.00,,,0.00,Wunderground v.1.15,2013-11-18 16:46:00,
2013-11-18 09:51:00,61.5,44.2,30.11,NNE,23,5.0,8.0,53,0.00,,,0.00,Wunderground v.1.15,2013-11-18 16:51:00,
2013-11-18 09:56:00,62.0,44.2,30.11,NW,323,5.0,8.0,52,0.00,,,0.00,Wunderground v.1.15,2013-11-18 16:56:00,
2013-11-18 10:01:00,62.5,44.1,30.11,North,355,4.0,7.0,51,0.00,,,0.00,Wunderground v.1.15,2013-11-18 17:01:00,
2013-11-18 10:06:00,62.9,44.0,30.11,North,6,5.0,8.0,50,0.00,,,0.00,Wunderground v.1.15,2013-11-18 17:06:00,
2013-11-18 10:11:00,63.3,44.3,30.11,NE,41,2.0,7.0,50,0.00,,,0.00,Wunderground v.1.15,2013-11-18 17:11:00,
2013-11-18 10:16:00,63.7,44.2,30.11,North,360,7.0,8.0,49,0.00,,,0.00,Wunderground v.1.15,2013-11-18 17:16:00,
2013-11-18 10:21:00,63.7,44.7,30.11,NNE,23,8.0,8.0,50,0.00,,,0.00,Wunderground v.1.15,2013-11-18 17:21:00,
2013-11-18 10:26:00,63.9,44.4,30.11,North,351,1.0,8.0,49,0.00,,,0.00,Wunderground v.1.15,2013-11-18 17:26:00,
2013-11-18 10:31:00,64.2,44.6,30.11,North,11,4.0,7.0,49,0.00,,,0.00,Wunderground v.1.15,2013-11-18 17:31:00,
2013-11-18 10:36:00,64.5,44.4,30.11,NW,316,5.0,7.0,48,0.00,,,0.00,Wunderground v.1.15,2013-11-18 17:36:00,
2013-11-18 10:41:00,64.7,45.1,30.11,WNW,284,0.0,7.0,49,0.00,,,0.00,Wunderground v.1.15,2013-11-18 17:41:00,
2013-11-18 10:46:00,65.2,45.0,30.11,WNW,285,6.0,8.0,48,0.00,,,0.00,Wunderground v.1.15,2013-11-18 17:46:00,
2013-11-18 10:51:00,65.8,45.6,30.11,North,354,4.0,4.0,48,0.00,,,0.00,Wunderground v.1.15,2013-11-18 17:51:00,
2013-11-18 10:56:00,66.0,45.7,30.10,NW,316,3.0,6.0,48,0.00,,,0.00,Wunderground v.1.15,2013-11-18 17:56:00,
2013-11-18 11:01:00,66.4,45.5,30.10,NNW,328,6.0,6.0,47,0.00,,,0.00,Wunderground v.1.15,2013-11-18 18:01:00,
2013-11-18 11:06:00,66.8,44.8,30.10,NNW,331,0.0,7.0,45,0.00,,,0.00,Wunderground v.1.15,2013-11-18 18:06:00,
2013-11-18 11:11:00,67.5,45.4,30.10,SSW,200,0.0,6.0,45,0.00,,,0.00,Wunderground v.1.15,2013-11-18 18:11:00,
2013-11-18 11:16:00,68.2,44.8,30.10,ENE,73,0.0,6.0,43,0.00,,,0.00,Wunderground v.1.15,2013-11-18 18:16:00,
2013-11-18 11:21:00,69.1,44.4,30.10,NNW,347,4.0,4.0,41,0.00,,,0.00,Wunderground v.1.15,2013-11-18 18:21:00,
2013-11-18 11:26:00,69.5,44.8,30.09,NNW,330,4.0,7.0,41,0.00,,,0.00,Wunderground v.1.15,2013-11-18 18:26:00,
2013-11-18 11:32:00,69.8,45.0,30.09,North,354,5.0,5.0,41,0.00,,,0.00,Wunderground v.1.15,2013-11-18 18:32:00,
2013-11-18 11:37:00,69.8,45.0,30.09,SSW,194,1.0,6.0,41,0.00,,,0.00,Wunderground v.1.15,2013-11-18 18:37:00,
2013-11-18 11:42:00,70.5,45.0,30.09,East,79,2.0,3.0,40,0.00,,,0.00,Wunderground v.1.15,2013-11-18 18:42:00,
2013-11-18 11:47:00,71.0,44.8,30.09,ESE,104,2.0,6.0,39,0.00,,,0.00,Wunderground v.1.15,2013-11-18 18:47:00,
2013-11-18 11:52:00,71.6,44.6,30.08,ENE,63,2.0,6.0,38,0.00,,,0.00,Wunderground v.1.15,2013-11-18 18:52:00,
2013-11-18 11:57:00,71.0,44.8,30.08,NNE,20,4.0,8.0,39,0.00,,,0.00,Wunderground v.1.15,2013-11-18 18:57:00,
2013-11-18 12:02:00,71.6,45.3,30.08,North,351,2.0,3.0,39,0.00,,,0.00,Wunderground v.1.15,2013-11-18 19:02:00,
2013-11-18 12:07:00,71.9,44.9,30.07,North,8,3.0,7.0,38,0.00,,,0.00,Wunderground v.1.15,2013-11-18 19:07:00,
2013-11-18 12:12:00,72.1,45.1,30.07,NNW,338,6.0,7.0,38,0.00,,,0.00,Wunderground v.1.15,2013-11-18 19:12:00,
2013-11-18 12:17:00,71.8,44.1,30.07,North,352,5.0,10.0,37,0.00,,,0.00,Wunderground v.1.15,2013-11-18 19:17:00,
2013-11-18 12:22:00,71.7,44.7,30.07,North,353,3.0,7.0,38,0.00,,,0.00,Wunderground v.1.15,2013-11-18 19:22:00,
2013-11-18 12:27:00,72.5,45.4,30.06,North,354,1.0,7.0,38,0.00,,,0.00,Wunderground v.1.15,2013-11-18 19:27:00,
2013-11-18 12:32:00,72.9,45.1,30.06,NNE,23,3.0,9.0,37,0.00,,,0.00,Wunderground v.1.15,2013-11-18 19:32:00,
2013-11-18 12:37:00,73.1,45.3,30.06,North,5,7.0,9.0,37,0.00,,,0.00,Wunderground v.1.15,2013-11-18 19:37:00,
2013-11-18 12:42:00,73.3,45.4,30.06,NNE,25,0.0,8.0,37,0.00,,,0.00,Wunderground v.1.15,2013-11-18 19:42:00,
2013-11-18 12:47:00,73.9,45.3,30.05,North,354,6.0,9.0,36,0.00,,,0.00,Wunderground v.1.15,2013-11-18 19:47:00,
2013-11-18 12:52:00,74.0,46.1,30.05,North,9,6.0,8.0,37,0.00,,,0.00,Wunderground v.1.15,2013-11-18 19:52:00,
2013-11-18 12:57:00,73.5,45.6,30.04,NNW,335,2.0,9.0,37,0.00,,,0.00,Wunderground v.1.15,2013-11-18 19:57:00,
2013-11-18 13:02:00,73.1,45.3,30.04,West,263,3.0,9.0,37,0.00,,,0.00,Wunderground v.1.15,2013-11-18 20:02:00,
2013-11-18 13:07:00,73.3,45.4,30.04,NNE,12,5.0,9.0,37,0.00,,,0.00,Wunderground v.1.15,2013-11-18 20:07:00,
2013-11-18 13:13:00,73.2,45.4,30.03,West,278,5.0,8.0,37,0.00,,,0.00,Wunderground v.1.15,2013-11-18 20:13:00,
2013-11-18 13:18:00,73.7,45.8,30.03,NNW,346,5.0,8.0,37,0.00,,,0.00,Wunderground v.1.15,2013-11-18 20:18:00,
2013-11-18 13:23:00,74.0,45.3,30.03,North,359,5.0,8.0,36,0.00,,,0.00,Wunderground v.1.15,2013-11-18 20:23:00,
2013-11-18 13:28:00,74.0,45.3,30.03,NW,307,5.0,11.0,36,0.00,,,0.00,Wunderground v.1.15,2013-11-18 20:28:00,
2013-11-18 13:33:00,74.4,46.4,30.02,NE,54,6.0,6.0,37,0.00,,,0.00,Wunderground v.1.15,2013-11-18 20:33:00,
2013-11-18 13:38:00,74.8,46.8,30.02,North,356,1.0,7.0,37,0.00,,,0.00,Wunderground v.1.15,2013-11-18 20:38:00,
2013-11-18 13:43:00,75.4,46.6,30.01,NNW,341,1.0,9.0,36,0.00,,,0.00,Wunderground v.1.15,2013-11-18 20:43:00,
2013-11-18 13:48:00,75.1,46.3,30.01,NNE,16,8.0,11.0,36,0.00,,,0.00,Wunderground v.1.15,2013-11-18 20:48:00,
2013-11-18 13:53:00,74.8,46.1,30.01,NW,312,5.0,8.0,36,0.00,,,0.00,Wunderground v.1.15,2013-11-18 20:53:00,
2013-11-18 13:58:00,74.4,46.4,30.01,NNW,341,4.0,9.0,37,0.00,,,0.00,Wunderground v.1.15,2013-11-18 20:58:00,
2013-11-18 14:04:00,74.8,47.5,30.00,WSW,243,1.0,5.0,38,0.00,,,0.00,Wunderground v.1.15,2013-11-18 21:04:00,
2013-11-18 14:09:00,75.4,47.3,30.00,North,8,8.0,8.0,37,0.00,,,0.00,Wunderground v.1.15,2013-11-18 21:09:00,
2013-11-18 14:14:00,75.1,46.3,30.00,NNW,337,6.0,8.0,36,0.00,,,0.00,Wunderground v.1.15,2013-11-18 21:14:00,
2013-11-18 14:19:00,74.9,46.9,30.00,SW,228,6.0,10.0,37,0.00,,,0.00,Wunderground v.1.15,2013-11-18 21:19:00,
2013-11-18 14:24:00,75.1,47.8,29.99,NE,45,4.0,9.0,38,0.00,,,0.00,Wunderground v.1.15,2013-11-18 21:24:00,
2013-11-18 14:29:00,75.0,47.7,29.99,NE,46,0.0,9.0,38,0.00,,,0.00,Wunderground v.1.15,2013-11-18 21:29:00,
2013-11-18 14:34:00,75.4,48.0,29.99,NE,35,2.0,8.0,38,0.00,,,0.00,Wunderground v.1.15,2013-11-18 21:34:00,
2013-11-18 14:39:00,75.7,48.3,29.99,NE,34,0.0,9.0,38,0.00,,,0.00,Wunderground v.1.15,2013-11-18 21:39:00,
2013-11-18 14:44:00,76.0,47.8,29.99,NNW,328,3.0,6.0,37,0.00,,,0.00,Wunderground v.1.15,2013-11-18 21:44:00,
2013-11-18 14:49:00,75.6,48.2,29.98,WNW,287,6.0,8.0,38,0.00,,,0.00,Wunderground v.1.15,2013-11-18 21:49:00,
2013-11-18 14:54:00,75.8,48.4,29.98,WNW,303,4.0,7.0,38,0.00,,,0.00,Wunderground v.1.15,2013-11-18 21:54:00,
2013-11-18 15:00:00,75.8,48.4,29.98,NNE,21,0.0,3.0,38,0.00,,,0.00,Wunderground v.1.15,2013-11-18 22:00:00,
2013-11-18 15:05:00,75.9,48.5,29.98,NNW,328,1.0,5.0,38,0.00,,,0.00,Wunderground v.1.15,2013-11-18 22:05:00,
2013-11-18 15:10:00,76.2,48.0,29.98,West,273,3.0,3.0,37,0.00,,,0.00,Wunderground v.1.15,2013-11-18 22:10:00,
2013-11-18 15:15:00,76.2,48.7,29.98,NW,319,6.0,8.0,38,0.00,,,0.00,Wunderground v.1.15,2013-11-18 22:15:00,
2013-11-18 15:20:00,75.9,48.5,29.98,NNW,335,5.0,6.0,38,0.00,,,0.00,Wunderground v.1.15,2013-11-18 22:20:00,
2013-11-18 15:25:00,75.9,48.5,29.98,NNW,335,6.0,8.0,38,0.00,,,0.00,Wunderground v.1.15,2013-11-18 22:25:00,
2013-11-18 15:30:00,76.1,48.6,29.98,West,269,4.0,5.0,38,0.00,,,0.00,Wunderground v.1.15,2013-11-18 22:30:00,
2013-11-18 15:35:00,76.2,48.0,29.98,NW,312,4.0,6.0,37,0.00,,,0.00,Wunderground v.1.15,2013-11-18 22:35:00,
2013-11-18 15:40:00,76.3,48.1,29.98,West,266,3.0,7.0,37,0.00,,,0.00,Wunderground v.1.15,2013-11-18 22:40:00,
2013-11-18 15:45:00,76.3,47.4,29.97,WNW,298,2.0,8.0,36,0.00,,,0.00,Wunderground v.1.15,2013-11-18 22:45:00,
2013-11-18 15:50:00,76.2,47.3,29.97,West,276,3.0,4.0,36,0.00,,,0.00,Wunderground v.1.15,2013-11-18 22:50:00,
2013-11-18 15:55:00,76.4,47.5,29.97,WNW,289,4.0,5.0,36,0.00,,,0.00,Wunderground v.1.15,2013-11-18 22:55:00,
2013-11-18 16:00:00,76.1,47.2,29.97,West,281,3.0,4.0,36,0.00,,,0.00,Wunderground v.1.15,2013-11-18 23:00:00,
2013-11-18 16:05:00,76.1,47.9,29.97,West,269,5.0,5.0,37,0.00,,,0.00,Wunderground v.1.15,2013-11-18 23:05:00,
2013-11-18 16:10:00,75.9,47.8,29.97,West,266,1.0,4.0,37,0.00,,,0.00,Wunderground v.1.15,2013-11-18 23:10:00,
2013-11-18 16:15:00,76.0,47.8,29.97,WNW,282,2.0,6.0,37,0.00,,,0.00,Wunderground v.1.15,2013-11-18 23:15:00,
2013-11-18 16:20:00,76.2,48.0,29.97,West,260,4.0,4.0,37,0.00,,,0.00,Wunderground v.1.15,2013-11-18 23:20:00,
2013-11-18 16:25:00,76.1,47.2,29.97,West,270,1.0,5.0,36,0.00,,,0.00,Wunderground v.1.15,2013-11-18 23:25:00,
2013-11-18 16:30:00,76.2,47.3,29.97,West,281,1.0,3.0,36,0.00,,,0.00,Wunderground v.1.15,2013-11-18 23:30:00,
2013-11-18 16:35:00,76.2,47.3,29.96,West,281,2.0,3.0,36,0.00,,,0.00,Wunderground v.1.15,2013-11-18 23:35:00,
2013-11-18 16:40:00,76.0,47.1,29.96,West,271,2.0,3.0,36,0.00,,,0.00,Wunderground v.1.15,2013-11-18 23:40:00,
2013-11-18 16:46:00,76.0,47.8,29.96,West,277,0.0,3.0,37,0.00,,,0.00,Wunderground v.1.15,2013-11-18 23:46:00,
2013-11-18 16:51:00,76.2,48.0,29.96,WNW,289,1.0,1.0,37,0.00,,,0.00,Wunderground v.1.15,2013-11-18 23:51:00,
2013-11-18 16:56:00,76.4,48.2,29.96,WNW,282,0.0,1.0,37,0.00,,,0.00,Wunderground v.1.15,2013-11-18 23:56:00,
2013-11-18 17:01:00,76.6,47.6,29.96,WNW,283,0.0,1.0,36,0.00,,,0.00,Wunderground v.1.15,2013-11-19 00:01:00,
2013-11-18 17:06:00,76.4,48.2,29.96,WNW,283,0.0,1.0,37,0.00,,,0.00,Wunderground v.1.15,2013-11-19 00:06:00,
2013-11-18 17:11:00,76.3,48.1,29.96,WNW,283,0.0,0.0,37,0.00,,,0.00,Wunderground v.1.15,2013-11-19 00:11:00,
2013-11-18 17:16:00,76.3,48.1,29.96,WNW,283,0.0,0.0,37,0.00,,,0.00,Wunderground v.1.15,2013-11-19 00:16:00,
2013-11-18 17:21:00,75.8,47.7,29.96,WNW,282,0.0,0.0,37,0.00,,,0.00,Wunderground v.1.15,2013-11-19 00:21:00,
2013-11-18 17:26:00,75.0,47.7,29.96,WNW,282,0.0,0.0,38,0.00,,,0.00,Wunderground v.1.15,2013-11-19 00:26:00,
2013-11-18 17:31:00,74.2,47.6,29.96,WNW,283,0.0,0.0,39,0.00,,,0.00,Wunderground v.1.15,2013-11-19 00:31:00,
2013-11-18 17:36:00,73.3,47.5,29.96,WNW,282,0.0,0.0,40,0.00,,,0.00,Wunderground v.1.15,2013-11-19 00:36:00,
2013-11-18 17:41:00,72.5,47.5,29.96,WNW,283,0.0,0.0,41,0.00,,,0.00,Wunderground v.1.15,2013-11-19 00:41:00,
2013-11-18 17:46:00,71.5,47.2,29.96,WNW,283,0.0,0.0,42,0.00,,,0.00,Wunderground v.1.15,2013-11-19 00:46:00,
2013-11-18 17:51:00,70.8,47.8,29.96,WNW,283,0.0,0.0,44,0.00,,,0.00,Wunderground v.1.15,2013-11-19 00:51:00,
2013-11-18 17:56:00,70.3,47.9,29.96,WNW,282,0.0,0.0,45,0.00,,,0.00,Wunderground v.1.15,2013-11-19 00:56:00,
2013-11-18 18:01:00,69.9,47.6,29.97,WNW,283,0.0,0.0,45,0.00,,,0.00,Wunderground v.1.15,2013-11-19 01:01:00,
2013-11-18 18:06:00,69.6,47.9,29.97,WNW,283,0.0,0.0,46,0.00,,,0.00,Wunderground v.1.15,2013-11-19 01:06:00,
2013-11-18 18:11:00,69.4,47.7,29.97,WNW,283,0.0,0.0,46,0.00,,,0.00,Wunderground v.1.15,2013-11-19 01:11:00,
2013-11-18 18:16:00,69.0,47.9,29.97,WNW,283,0.0,1.0,47,0.00,,,0.00,Wunderground v.1.15,2013-11-19 01:16:00,
2013-11-18 18:21:00,68.5,47.5,29.97,WNW,282,0.0,0.0,47,0.00,,,0.00,Wunderground v.1.15,2013-11-19 01:21:00,
2013-11-18 18:26:00,68.1,47.7,29.97,WNW,283,0.0,0.0,48,0.00,,,0.00,Wunderground v.1.15,2013-11-19 01:26:00,
2013-11-18 18:31:00,67.7,47.8,29.97,WNW,283,0.0,0.0,49,0.00,,,0.00,Wunderground v.1.15,2013-11-19 01:31:00,
2013-11-18 18:36:00,67.1,47.3,29.97,WNW,283,0.0,1.0,49,0.00,,,0.00,Wunderground v.1.15,2013-11-19 01:36:00,
2013-11-18 18:41:00,66.8,47.0,29.97,WNW,283,0.0,0.0,49,0.00,,,0.00,Wunderground v.1.15,2013-11-19 01:41:00,
2013-11-18 18:44:00,66.8,47.0,29.97,WNW,282,0.0,0.0,49,0.00,,,0.00,Wunderground v.1.15,2013-11-19 01:44:00,
2013-11-18 18:49:00,66.5,46.7,29.97,WNW,283,0.0,0.0,49,0.00,,,0.00,Wunderground v.1.15,2013-11-19 01:49:00,
2013-11-18 18:54:00,66.5,47.3,29.98,WNW,282,0.0,0.0,50,0.00,,,0.00,Wunderground v.1.15,2013-11-19 01:54:00,
2013-11-18 18:59:00,67.1,47.3,29.98,WNW,283,0.0,0.0,49,0.00,,,0.00,Wunderground v.1.15,2013-11-19 01:59:00,
2013-11-18 19:04:00,66.9,47.1,29.98,WNW,282,0.0,0.0,49,0.00,,,0.00,Wunderground v.1.15,2013-11-19 02:04:00,
2013-11-18 19:09:00,66.3,46.6,29.98,WNW,283,0.0,0.0,49,0.00,,,0.00,Wunderground v.1.15,2013-11-19 02:09:00,
2013-11-18 19:14:00,65.8,46.6,29.98,WNW,283,0.0,0.0,50,0.00,,,0.00,Wunderground v.1.15,2013-11-19 02:14:00,
2013-11-18 19:19:00,65.5,46.9,29.98,WNW,283,0.0,0.0,51,0.00,,,0.00,Wunderground v.1.15,2013-11-19 02:19:00,
2013-11-18 19:24:00,65.2,46.6,29.98,WNW,282,0.0,1.0,51,0.00,,,0.00,Wunderground v.1.15,2013-11-19 02:24:00,
2013-11-18 19:29:00,65.4,46.8,29.98,ESE,120,0.0,1.0,51,0.00,,,0.00,Wunderground v.1.15,2013-11-19 02:29:00,
2013-11-18 19:34:00,65.8,46.6,29.97,ESE,113,2.0,2.0,50,0.00,,,0.00,Wunderground v.1.15,2013-11-19 02:34:00,
2013-11-18 19:39:00,65.7,46.5,29.97,ESE,119,1.0,2.0,50,0.00,,,0.00,Wunderground v.1.15,2013-11-19 02:39:00,
2013-11-18 19:44:00,65.3,46.2,29.97,East,100,1.0,2.0,50,0.00,,,0.00,Wunderground v.1.15,2013-11-19 02:44:00,
2013-11-18 19:50:00,64.8,45.7,29.97,ESE,114,1.0,2.0,50,0.00,,,0.00,Wunderground v.1.15,2013-11-19 02:50:00,
2013-11-18 19:55:00,64.4,45.3,29.97,ESE,112,0.0,1.0,50,0.00,,,0.00,Wunderground v.1.15,2013-11-19 02:55:00,
2013-11-18 20:00:00,64.1,45.6,29.97,ESE,109,0.0,1.0,51,0.00,,,0.00,Wunderground v.1.15,2013-11-19 03:00:00,
2013-11-18 20:05:00,63.9,45.4,29.98,ESE,119,0.0,2.0,51,0.00,,,0.00,Wunderground v.1.15,2013-11-19 03:05:00,
2013-11-18 20:10:00,63.9,45.9,29.97,ESE,115,2.0,2.0,52,0.00,,,0.00,Wunderground v.1.15,2013-11-19 03:10:00,
2013-11-18 20:15:00,64.0,45.5,29.97,ESE,113,1.0,3.0,51,0.00,,,0.00,Wunderground v.1.15,2013-11-19 03:15:00,
2013-11-18 20:20:00,64.0,45.5,29.97,ESE,114,1.0,2.0,51,0.00,,,0.00,Wunderground v.1.15,2013-11-19 03:20:00,
2013-11-18 20:25:00,63.8,45.3,29.97,ESE,110,1.0,3.0,51,0.00,,,0.00,Wunderground v.1.15,2013-11-19 03:25:00,
2013-11-18 20:30:00,63.8,45.3,29.97,ESE,110,2.0,3.0,51,0.00,,,0.00,Wunderground v.1.15,2013-11-19 03:30:00,
2013-11-18 20:35:00,63.9,45.4,29.97,ESE,116,1.0,3.0,51,0.00,,,0.00,Wunderground v.1.15,2013-11-19 03:35:00,
2013-11-18 20:40:00,63.9,45.4,29.97,ESE,119,1.0,2.0,51,0.00,,,0.00,Wunderground v.1.15,2013-11-19 03:40:00,
2013-11-18 20:45:00,63.8,45.3,29.98,ESE,107,0.0,4.0,51,0.00,,,0.00,Wunderground v.1.15,2013-11-19 03:45:00,
2013-11-18 20:50:00,63.6,45.6,29.98,ESE,105,0.0,1.0,52,0.00,,,0.00,Wunderground v.1.15,2013-11-19 03:50:00,
2013-11-18 20:56:00,63.2,45.3,29.99,ESE,104,0.0,1.0,52,0.00,,,0.00,Wunderground v.1.15,2013-11-19 03:56:00,
2013-11-18 21:01:00,62.7,45.3,29.98,East,94,0.0,0.0,53,0.00,,,0.00,Wunderground v.1.15,2013-11-19 04:01:00,
2013-11-18 21:06:00,62.7,45.8,29.98,ESE,110,0.0,1.0,54,0.00,,,0.00,Wunderground v.1.15,2013-11-19 04:06:00,
2013-11-18 21:07:00,62.7,45.8,29.98,ESE,110,0.0,1.0,54,0.00,,,0.00,Wunderground v.1.15,2013-11-19 04:07:00,
2013-11-18 21:12:00,62.6,45.7,29.98,ESE,117,0.0,1.0,54,0.00,,,0.00,Wunderground v.1.15,2013-11-19 04:12:00,
2013-11-18 21:17:00,62.1,45.2,29.98,ESE,117,0.0,1.0,54,0.00,,,0.00,Wunderground v.1.15,2013-11-19 04:17:00,
2013-11-18 21:22:00,61.5,45.2,29.98,ESE,117,0.0,0.0,55,0.00,,,0.00,Wunderground v.1.15,2013-11-19 04:22:00,
2013-11-18 21:27:00,60.0,43.8,29.99,West,269,1.0,2.0,55,0.00,,,0.00,Wunderground v.1.15,2013-11-19 04:27:00,
2013-11-18 21:32:00,57.7,43.0,29.99,West,278,0.0,1.0,58,0.00,,,0.00,Wunderground v.1.15,2013-11-19 04:32:00,
2013-11-18 21:37:00,57.5,44.1,29.99,West,276,0.0,1.0,61,0.00,,,0.00,Wunderground v.1.15,2013-11-19 04:37:00,
2013-11-18 21:42:00,57.6,43.8,29.99,West,276,0.0,0.0,60,0.00,,,0.00,Wunderground v.1.15,2013-11-19 04:42:00,
2013-11-18 21:47:00,57.2,43.9,29.98,West,276,0.0,0.0,61,0.00,,,0.00,Wunderground v.1.15,2013-11-19 04:47:00,
2013-11-18 21:52:00,56.9,44.0,29.98,West,276,0.0,0.0,62,0.00,,,0.00,Wunderground v.1.15,2013-11-19 04:52:00,
2013-11-18 21:57:00,57.3,44.4,29.99,South,177,0.0,1.0,62,0.00,,,0.00,Wunderground v.1.15,2013-11-19 04:57:00,
2013-11-18 22:01:00,57.4,44.5,29.99,South,177,0.0,0.0,62,0.00,,,0.00,Wunderground v.1.15,2013-11-19 05:01:00,
2013-11-18 22:06:00,57.5,45.0,29.99,South,177,0.0,0.0,63,0.00,,,0.00,Wunderground v.1.15,2013-11-19 05:06:00,
2013-11-18 22:11:00,57.9,45.4,29.98,ESE,120,0.0,0.0,63,0.00,,,0.00,Wunderground v.1.15,2013-11-19 05:11:00,
2013-11-18 22:16:00,58.4,46.3,29.98,ESE,114,0.0,1.0,64,0.00,,,0.00,Wunderground v.1.15,2013-11-19 05:16:00,
2013-11-18 22:21:00,58.8,46.2,29.98,ESE,114,0.0,0.0,63,0.00,,,0.00,Wunderground v.1.15,2013-11-19 05:21:00,
2013-11-18 22:26:00,58.9,45.5,29.98,ESE,114,0.0,0.0,61,0.00,,,0.00,Wunderground v.1.15,2013-11-19 05:26:00,
2013-11-18 22:31:00,58.7,45.7,29.98,ESE,114,0.0,0.0,62,0.00,,,0.00,Wunderground v.1.15,2013-11-19 05:31:00,
2013-11-18 22:36:00,58.5,45.5,29.98,ESE,114,0.0,0.0,62,0.00,,,0.00,Wunderground v.1.15,2013-11-19 05:36:00,
2013-11-18 22:41:00,58.2,45.7,29.98,ESE,114,0.0,0.0,63,0.00,,,0.00,Wunderground v.1.15,2013-11-19 05:41:00,
2013-11-18 22:46:00,57.8,45.7,29.98,ESE,114,0.0,0.0,64,0.00,,,0.00,Wunderground v.1.15,2013-11-19 05:46:00,
2013-11-18 22:51:00,57.4,45.7,29.98,ESE,114,0.0,0.0,65,0.00,,,0.00,Wunderground v.1.15,2013-11-19 05:51:00,
2013-11-18 22:56:00,57.8,46.1,29.98,ESE,113,0.0,0.0,65,0.00,,,0.00,Wunderground v.1.15,2013-11-19 05:56:00,
2013-11-18 23:01:00,58.4,46.3,29.98,ESE,113,0.0,1.0,64,0.00,,,0.00,Wunderground v.1.15,2013-11-19 06:01:00,
2013-11-18 23:06:00,59.4,46.4,29.98,ESE,118,1.0,1.0,62,0.00,,,0.00,Wunderground v.1.15,2013-11-19 06:06:00,
2013-11-18 23:11:00,59.6,46.1,29.98,East,101,0.0,1.0,61,0.00,,,0.00,Wunderground v.1.15,2013-11-19 06:11:00,
2013-11-18 23:16:00,59.6,45.7,29.98,ESE,115,1.0,1.0,60,0.00,,,0.00,Wunderground v.1.15,2013-11-19 06:16:00,
2013-11-18 23:21:00,59.5,45.6,29.99,ESE,117,1.0,1.0,60,0.00,,,0.00,Wunderground v.1.15,2013-11-19 06:21:00,
2013-11-18 23:26:00,59.5,45.6,29.99,ESE,108,0.0,1.0,60,0.00,,,0.00,Wunderground v.1.15,2013-11-19 06:26:00,
2013-11-18 23:31:00,59.3,45.4,29.99,ESE,108,0.0,0.0,60,0.00,,,0.00,Wunderground v.1.15,2013-11-19 06:31:00,
2013-11-18 23:37:00,58.9,45.5,29.99,ESE,108,0.0,1.0,61,0.00,,,0.00,Wunderground v.1.15,2013-11-19 06:37:00,
2013-11-18 23:42:00,58.2,45.7,29.99,ESE,108,0.0,0.0,63,0.00,,,0.00,Wunderground v.1.15,2013-11-19 06:42:00,
2013-11-18 23:47:00,58.0,45.5,29.99,ESE,108,0.0,1.0,63,0.00,,,0.00,Wunderground v.1.15,2013-11-19 06:47:00,
2013-11-18 23:52:00,57.8,45.3,29.99,ESE,108,0.0,0.0,63,0.00,,,0.00,Wunderground v.1.15,2013-11-19 06:52:00,
2013-11-18 23:57:00,57.7,45.2,29.99,ESE,108,0.0,0.0,63,0.00,,,0.00,Wunderground v.1.15,2013-11-19 06:57:00,